This is the latest recevied weather packets stored in our database for station/object K6POO-1. If no packets are shown the sender has not sent any weather packets the latest 10 day(s).
| Time | Temp. | Humidity | Pressure | Rain* | Wind** | Luminosity | Snow |
|---|---|---|---|---|---|---|---|
| 1787946495 | 16.11° C | 84% | 1017.4 hPa | 0 mm | - | 227 W/m² | - |
| 1787946192 | 16.67° C | 83% | 1017.3 hPa | 0 mm | - | 221 W/m² | - |
| 1787945891 | 16.67° C | 83% | 1017.4 hPa | 0 mm | - | 216 W/m² | - |
| 1787945586 | 16.67° C | 84% | 1017.3 hPa | 0 mm | - | 205 W/m² | - |
| 1787945286 | 16.67° C | 83% | 1017.2 hPa | 0 mm | - | 200 W/m² | - |
| 1787944988 | 16.11° C | 83% | 1017.2 hPa | 0 mm | - | 195 W/m² | - |
| 1787944678 | 16.67° C | 82% | 1017.3 hPa | 0 mm | - | 190 W/m² | - |
| 1787944375 | 16.67° C | 80% | 1017.1 hPa | 0 mm | - | 188 W/m² | - |
| 1787944069 | 17.78° C | 80% | 1017.1 hPa | 0 mm | - | 186 W/m² | - |
| 1787943764 | 17.78° C | 79% | 1017.1 hPa | 0 mm | - | 177 W/m² | - |
| 1787943460 | 17.78° C | 79% | 1017.2 hPa | 0 mm | - | 171 W/m² | - |
| 1787943156 | 17.78° C | 79% | 1016.9 hPa | 0 mm | - | 167 W/m² | - |
| 1787942850 | 17.22° C | 79% | 1016.8 hPa | 0 mm | - | 176 W/m² | - |
| 1787942546 | 17.22° C | 79% | 1016.7 hPa | 0 mm | - | 163 W/m² | - |
| 1787942245 | 17.22° C | 81% | 1016.7 hPa | 0 mm | - | 159 W/m² | - |
| 1787941940 | 17.78° C | 80% | 1016.7 hPa | 0 mm | - | 164 W/m² | - |
| 1787941639 | 17.78° C | 79% | 1016.5 hPa | 0 mm | - | 172 W/m² | - |
| 1787941334 | 17.78° C | 77% | 1016.5 hPa | 0 mm | - | 227 W/m² | - |
| 1787941033 | 18.33° C | 76% | 1016.4 hPa | 0 mm | - | 193 W/m² | - |
| 1787940733 | 17.78° C | 76% | 1016.6 hPa | 0 mm | - | 216 W/m² | - |
| 1787940431 | 17.78° C | 77% | 1016.5 hPa | 0 mm | - | 251 W/m² | - |
| 1787940126 | 18.33° C | 77% | 1016.6 hPa | 0 mm | - | 272 W/m² | - |
| 1787939820 | 17.78° C | 81% | 1016.7 hPa | 0 mm | - | 575 W/m² | - |
| 1787939519 | 17.78° C | 82% | 1016.7 hPa | 0 mm | - | 485 W/m² | - |
| 1787939215 | 17.22° C | 84% | 1016.6 hPa | 0 mm | - | 411 W/m² | - |
* Rain latest hour (hover to see other rain measurements)
** Current wind speed in m/s (hover to see current wind gust speed)